(256775) = 2008 CM4 = 2003 YC34

Discovered at Mount Lemmon on 2008-02-02 by Mt. Lemmon Survey.

Orbit

Orbit type: Main Belt

Note: WebGL enabled browser required.

epoch2023-09-13.0
epoch JD2460200.5
perihelion date2022-11-05.33489
perihelion JD2459888.83489
argument of perihelion (°)352.63485
ascending node (°)137.21351
inclination (°)6.68157
eccentricity0.2033114
perihelion distance (AU)1.9072614
Tisserand w.r.t. Jupiter3.5
ΔV w.r.t. Earth (km/sec)8.8
semimajor axis (AU)2.3939862
mean anomaly (°)82.92960
mean daily motion (°/day)0.26608560
aphelion distance (AU)2.881
period (years)3.7
P-vector [x]-0.64134934
P-vector [y]0.70973714
P-vector [z]0.29145190
Q-vector [x]-0.76316754
Q-vector [y]-0.62924846
Q-vector [z]-0.14704313
absolute magnitude16.86
phase slope0.15
uncertainty0
referenceMPO 778830
observations used569
oppositions11
arc length (days)7601
first opposition used2002
last opposition used2023
residual rms (arc-secs)0.68
perturbers coarse indicatorM-v
perturbers precise indicator003Ek
first observation date used2002-07-29.0
last observation date used2023-05-21.0
computer nameMPCLINUX
JD of orbit computation2456937.200980
perihelion JD uncertainty (days)9.3635E-05
argument of perihelion uncertainty (°)5.3252E-05
ascending node uncertainty (°)4.6638E-05
inclination uncertainty (°)5.0190E-06
eccentricity uncertainty 4.4048E-08
perihelion distance uncertainty (AU)1.0106E-07
Minimum Orbit Intersection Distances (in AU)
for orbit epoch: 2460200.5, reference: E2023-P06
Mercury1.57215
Venus1.191
Earth0.92082
Mars0.25686
Jupiter2.17301
Saturn6.86369
Uranus16.4155
Neptune27.184

Observations

578 total observations over interval: 2002 07 29.29321 – 2023 05 21.237875
These data are available for download (format description).

Date (UT) J2000 RA J2000 Dec Magn Location Ref
2002 07 29.29321 21 37 58.25 -13 58 37.8   644 – Palomar Mountain/NEAT MPS 305008
2002 07 29.35646 21 37 55.04 -13 59 01.3   644 – Palomar Mountain/NEAT MPS 305008
2002 08 08.35172 21 29 08.69 -15 02 19.7 20.3 R 644 – Palomar Mountain/NEAT MPS 305008
2002 08 08.36343 21 29 08.05 -15 02 24.1 20.3 R 644 – Palomar Mountain/NEAT MPS 305008
2002 08 08.37385 21 29 07.46 -15 02 28.7 20.4 R 644 – Palomar Mountain/NEAT MPS 305008
2002 08 17.35277 21 20 49.76 -15 59 57.9 20.6 R 644 – Palomar Mountain/NEAT MPS 305008
2002 08 17.37407 21 20 48.51 -16 00 05.6   644 – Palomar Mountain/NEAT MPS 305008
2002 08 17.40061 21 20 46.97 -16 00 15.2 20.4 R 644 – Palomar Mountain/NEAT MPS 305008
2003 11 18.44055 05 19 30.07 +11 45 26.5 19.9 V 691 – Steward Observatory, Kitt Peak-Spacewatch MPS 239624
2003 11 18.46916 05 19 28.85 +11 45 22.7 19.7 V 691 – Steward Observatory, Kitt Peak-Spacewatch MPS 239624
2003 11 18.49719 05 19 27.67 +11 45 18.7 19.9 V 691 – Steward Observatory, Kitt Peak-Spacewatch MPS 239624
2003 12 17.27879 04 52 21.40 +11 31 18.8 19.2 V 691 – Steward Observatory, Kitt Peak-Spacewatch MPS 94906
2003 12 17.30726 04 52 19.60 +11 31 21.7 19.4 V 691 – Steward Observatory, Kitt Peak-Spacewatch MPS 94906
2003 12 17.33433 04 52 17.88 +11 31 24.4 19.3 V 691 – Steward Observatory, Kitt Peak-Spacewatch MPS 94906
2003 12 20.25365 04 49 24.21 +11 37 06.4 18.9   704 – Lincoln Laboratory ETS, New Mexico MPS 94906
2003 12 20.26707 04 49 23.35 +11 37 08.2 19.2   704 – Lincoln Laboratory ETS, New Mexico MPS 94906
2003 12 20.28012 04 49 22.57 +11 37 10.1 19.4   704 – Lincoln Laboratory ETS, New Mexico MPS 94906
2003 12 20.29331 04 49 21.84 +11 37 12.3 19.3   704 – Lincoln Laboratory ETS, New Mexico MPS 94906
2003 12 20.30655 04 49 20.99 +11 37 14.1 19.6   704 – Lincoln Laboratory ETS, New Mexico MPS 94906
2004 01 18.15795 04 33 05.28 +13 43 26.0 20.0   644 – Palomar Mountain/NEAT MPS 239624
2004 01 18.17788 04 33 05.16 +13 43 33.3 19.8   644 – Palomar Mountain/NEAT MPS 239624
2004 01 18.19844 04 33 05.05 +13 43 40.7 20.1   644 – Palomar Mountain/NEAT MPS 239624
2007 12 20.47187 10 03 44.89 +09 05 49.7 19.8 V 703 – Catalina Sky Survey MPS 239624
2007 12 20.47784 10 03 45.10 +09 05 47.5 20.6 V 703 – Catalina Sky Survey MPS 239624
2007 12 20.48380 10 03 45.43 +09 05 48.4 20.1 V 703 – Catalina Sky Survey MPS 239624
2007 12 20.48979 10 03 45.68 +09 05 47.1 20.2 V 703 – Catalina Sky Survey MPS 239624
2007 12 31.38481 10 10 07.57 +09 11 07.4 19.9 V G96 – Mt. Lemmon Survey MPS 239624
2007 12 31.39060 10 10 07.71 +09 11 08.1 19.7 V G96 – Mt. Lemmon Survey MPS 239624
2007 12 31.39634 10 10 07.86 +09 11 08.8 19.7 V G96 – Mt. Lemmon Survey MPS 239624
2007 12 31.40218 10 10 07.96 +09 11 09.4 19.7 V G96 – Mt. Lemmon Survey MPS 239624
2008 01 14.46932 10 12 26.79 +10 04 33.7 19.2 V 691 – Steward Observatory, Kitt Peak-Spacewatch MPS 239624
2008 01 14.48694 10 12 26.68 +10 04 40.3 19.4 V 691 – Steward Observatory, Kitt Peak-Spacewatch MPS 239624
2008 01 14.50201 10 12 26.54 +10 04 45.8 19.4 V 691 – Steward Observatory, Kitt Peak-Spacewatch MPS 239624
2008 02 02.31558 10 05 11.14 +12 35 32.5 18.5 V G96 – Mt. Lemmon Survey MPS 236418
2008 02 02.32115 10 05 10.93 +12 35 35.8 18.6 V G96 – Mt. Lemmon Survey MPS 236418
2008 02 02.32668 10 05 10.68 +12 35 39.1 18.5 V G96 – Mt. Lemmon Survey MPS 236418
2008 02 02.33236 10 05 10.42 +12 35 42.4 18.5 V G96 – Mt. Lemmon Survey MPS 236418
2008 02 03.37709 10 04 28.81 +12 46 03.5 18.5 V 703 – Catalina Sky Survey MPS 236418
2008 02 03.38317 10 04 28.52 +12 46 06.9 18.4 V 703 – Catalina Sky Survey MPS 236418
2008 02 03.38928 10 04 28.23 +12 46 11.5 18.4 V 703 – Catalina Sky Survey MPS 236418
2008 02 03.39534 10 04 27.98 +12 46 15.0 18.5 V 703 – Catalina Sky Survey MPS 236418
2008 02 06.33839 10 02 24.26 +13 16 02.6 18.6 r 699 – Lowell Observatory-LONEOS MPS 236418
2008 02 06.36403 10 02 23.13 +13 16 18.1 18.3 r 699 – Lowell Observatory-LONEOS MPS 236418
2008 02 06.38966 10 02 21.79 +13 16 34.5 18.5 r 699 – Lowell Observatory-LONEOS MPS 236418
2008 02 06.41530 10 02 20.67 +13 16 49.9 18.2 r 699 – Lowell Observatory-LONEOS MPS 236418
2008 02 09.00601 10 00 24.66 +13 43 35.9 17.9   224 – Ottmarsheim MPS 237694
2008 02 09.02504 10 00 23.74 +13 43 48.4 18.0   224 – Ottmarsheim MPS 237694
2008 02 09.04410 10 00 22.82 +13 43 59.8 18.3   224 – Ottmarsheim MPS 237694
2008 02 10.28523 09 59 25.51 +13 56 59.1 18.0 V 703 – Catalina Sky Survey MPS 237694
2008 02 10.29196 09 59 25.18 +13 57 03.6 18.3 V 703 – Catalina Sky Survey MPS 237694
2008 02 10.29865 09 59 24.82 +13 57 07.4 18.4 V 703 – Catalina Sky Survey MPS 237694
2008 02 10.30534 09 59 24.50 +13 57 12.2 18.2 V 703 – Catalina Sky Survey MPS 237694
2008 02 10.34474 09 59 22.56 +13 57 36.7 18.1 V 703 – Catalina Sky Survey MPS 237694
2008 02 10.35214 09 59 22.20 +13 57 41.0 18.1 V 703 – Catalina Sky Survey MPS 237694
2008 02 10.35951 09 59 21.80 +13 57 45.8 18.3 V 703 – Catalina Sky Survey MPS 237694
2008 02 10.36696 09 59 21.44 +13 57 49.8 17.9 V 703 – Catalina Sky Survey MPS 237694
2008 02 12.29099 09 57 50.77 +14 17 56.0 18.3   704 – Lincoln Laboratory ETS, New Mexico MPS 237694
2008 02 12.30324 09 57 50.16 +14 18 03.9 18.5   704 – Lincoln Laboratory ETS, New Mexico MPS 237694
2008 02 12.31554 09 57 49.54 +14 18 11.9 18.5   704 – Lincoln Laboratory ETS, New Mexico MPS 237694
2008 02 12.32775 09 57 48.92 +14 18 19.1 18.6   704 – Lincoln Laboratory ETS, New Mexico MPS 237694
2008 02 12.33996 09 57 48.28 +14 18 26.7 18.5   704 – Lincoln Laboratory ETS, New Mexico MPS 237694
2008 02 27.33378 09 46 10.05 +16 45 47.5 18.4   704 – Lincoln Laboratory ETS, New Mexico MPS 239624
2008 02 27.34556 09 46 09.54 +16 45 53.6 18.4   704 – Lincoln Laboratory ETS, New Mexico MPS 239624
2008 02 27.35727 09 46 09.00 +16 45 59.7 19.0   704 – Lincoln Laboratory ETS, New Mexico MPS 239624
2008 02 27.36899 09 46 08.48 +16 46 06.5 18.7   704 – Lincoln Laboratory ETS, New Mexico MPS 239624
2008 02 27.38070 09 46 07.93 +16 46 12.0 19.0   704 – Lincoln Laboratory ETS, New Mexico MPS 239624
2008 03 03.19205 09 43 01.77 +17 25 52.6 18.9 V 703 – Catalina Sky Survey MPS 240858
2008 03 03.19850 09 43 01.48 +17 25 55.3 18.5 V 703 – Catalina Sky Survey MPS 240858
2008 03 03.20492 09 43 01.23 +17 25 58.6 18.7 V 703 – Catalina Sky Survey MPS 240858
2008 03 03.21141 09 43 00.94 +17 26 01.8 18.8 V 703 – Catalina Sky Survey MPS 240858
2008 03 10.29135 09 39 29.88 +18 14 27.3 19.1 V 703 – Catalina Sky Survey MPS 242255
2008 03 10.29804 09 39 29.73 +18 14 30.6 18.7 V 703 – Catalina Sky Survey MPS 242255
2008 03 10.30478 09 39 29.52 +18 14 32.5 18.9 V 703 – Catalina Sky Survey MPS 242255
2008 03 10.31155 09 39 29.37 +18 14 35.2 19.2 V 703 – Catalina Sky Survey MPS 242255
2008 03 12.21333 09 38 48.51 +18 25 22.2 19.0   704 – Lincoln Laboratory ETS, New Mexico MPS 242255
2008 03 12.22435 09 38 48.26 +18 25 26.1 19.2   704 – Lincoln Laboratory ETS, New Mexico MPS 242255
2008 03 12.23560 09 38 48.02 +18 25 29.9 19.3   704 – Lincoln Laboratory ETS, New Mexico MPS 242255
2008 03 12.24674 09 38 47.74 +18 25 33.3 19.1   704 – Lincoln Laboratory ETS, New Mexico MPS 242255
2008 03 12.25819 09 38 47.50 +18 25 37.5 19.1   704 – Lincoln Laboratory ETS, New Mexico MPS 242255
2008 04 08.18667 09 42 11.70 +19 17 32.0 19.8 V G96 – Mt. Lemmon Survey MPS 245815
2008 04 08.18986 09 42 11.78 +19 17 31.8 19.8   704 – Lincoln Laboratory ETS, New Mexico MPS 245815
2008 04 08.19228 09 42 11.84 +19 17 31.5 19.9 V G96 – Mt. Lemmon Survey MPS 245815
2008 04 08.19790 09 42 12.02 +19 17 31.1 19.9 V G96 – Mt. Lemmon Survey MPS 245815
2008 04 08.20122 09 42 12.21 +19 17 31.1 20.5   704 – Lincoln Laboratory ETS, New Mexico MPS 245815
2008 04 08.20353 09 42 12.20 +19 17 30.7 19.8 V G96 – Mt. Lemmon Survey MPS 245815
2008 04 08.21268 09 42 12.55 +19 17 29.8 19.8   704 – Lincoln Laboratory ETS, New Mexico MPS 245815
2008 04 08.22396 09 42 12.85 +19 17 29.4 19.7   704 – Lincoln Laboratory ETS, New Mexico MPS 245815
2008 04 08.23535 09 42 13.28 +19 17 29.0 20.3   704 – Lincoln Laboratory ETS, New Mexico MPS 245815
2010 07 09.147997 01 06 32.58 +02 23 39.5   C51 – WISE MPS 339032
2010 07 09.28030 01 06 39.58 +02 24 00.8   C51 – WISE MPS 339032
